Regional Weather Roundup
Issued by NWS

Home | Current Version | Previous Version | Text Only | Print | Product List | Glossary On
Versions: 1 2 3 4 5 6 7 8 9 10 11 12 13 14 15 16 17 18 19 20 21 22 23 24 25 26 27 28
000
ASUS45 KREV 180010
RWRNV
NEVADA REGIONAL WEATHER ROUNDUP
NATIONAL WEATHER SERVICE RENO NV
400 PM PST TUE JAN 17 2017

NOTE: "FAIR" INDICATES FEW OR NO CLOUDS BELOW 12,000 FEET WITH NO
SIGNIFICANT WEATHER AND/OR OBSTRUCTIONS TO VISIBILITY.

NVZ001-003-004-180100-
WESTERN NEVADA

CITY           SKY/WX    TMP DP  RH WIND       PRES   REMARKS
RENO           MOCLDY    36  24  62 CALM      30.13S
6HR MIN TEMP:  26; 6HR MAX TEMP:  36;

CARSON CITY      N/A     28  25  86 E9G16     30.15S
MINDEN         FAIR      32  25  74 CALM      30.14S
PYRAMID LAKE     N/A     34 N/A N/A SE7         N/A
FALLON         MOCLDY    35  25  66 S3        30.14F
6HR MIN TEMP:  28; 6HR MAX TEMP:  36;

LOVELOCK       PTCLDY    32  25  75 SW6       30.14F
6HR MIN TEMP:  28; 6HR MAX TEMP:  34;

HAWTHORNE        N/A     36  27  69 CALM      30.15F
$$

NVZ002-CAZ072-073-180100-
NORTHERN AND CENTRAL SIERRA

CITY           SKY/WX    TMP DP  RH WIND       PRES   REMARKS
S. LAKE TAHOE  PTCLDY    36  33  89 CALM      30.12R
6HR MIN TEMP:  29; 6HR MAX TEMP:  43;

TRUCKEE        MOCLDY    30  28  93 CALM      30.11R
                   6HR MAX TEMP:  30;

SQUAW VLY 8000   N/A     36  27  69 SW8         N/A
SUSANVILLE     CLEAR     32  27  80 CALM      30.14F
MAMMOTH LAKES  FAIR      25  13  62 SE10      30.15S
6HR MIN TEMP:  15; 6HR MAX TEMP:  35;

BRIDGEPORT       N/A     35  21  56 CALM      30.08F
$$

NVZ030-031-036-180100-
NORTHERN NEVADA

CITY           SKY/WX    TMP DP  RH WIND       PRES   REMARKS
ELKO           CLEAR     19   9  65 N3        30.18S
6HR MIN TEMP:  15; 6HR MAX TEMP:  20; 6HR PCP: TRACE;

WINNEMUCCA     PTCLDY    33  24  69 CALM      30.13S
6HR MIN TEMP:  26; 6HR MAX TEMP:  35;

WENDOVER       CLOUDY    25  18  74 S3        30.24F
$$

NVZ035-037-180100-
CENTRAL NEVADA

CITY           SKY/WX    TMP DP  RH WIND       PRES   REMARKS
ELY            CLEAR     34  13  41 CALM      30.13S
6HR MIN TEMP:  12; 6HR MAX TEMP:  35;

EUREKA           N/A     26  16  65 CALM      30.13F
6HR MIN TEMP:  13; 6HR MAX TEMP:  28;

$$

NVZ013-014-180100-
SOUTH CENTRAL NEVADA

CITY           SKY/WX    TMP DP  RH WIND       PRES   REMARKS
TONOPAH        CLEAR     42  14  32 SE3       30.14S
6HR MIN TEMP:  25; 6HR MAX TEMP:  43;

$$

NVZ017-020-022-180100-
SOUTHERN NEVADA

CITY           SKY/WX    TMP DP  RH WIND       PRES   REMARKS
LAS VEGAS      CLEAR     56  14  19 CALM      30.12R
6HR MIN TEMP:  48; 6HR MAX TEMP:  56;

N. LAS VEGAS   CLEAR     54  17  23 CALM      30.12S
6HR MIN TEMP:  48; 6HR MAX TEMP:  56;

NELLIS AFB     CLEAR     56  20  24 NE5       30.12R
6HR MIN TEMP:  46; 6HR MAX TEMP:  56;

HENDERSON      CLEAR     53  16  23 CALM      30.14S
6HR MIN TEMP:  47; 6HR MAX TEMP:  55;

MERCURY        CLEAR     53  14  21 SE6       30.12R
6HR MIN TEMP:  47; 6HR MAX TEMP:  54;

$$




USA.gov is the U.S. government's official web portal to all federal, state and local government web resources and services.